owner,sensor,date,latitude,longitude,vertical_datum,mass_concentration_of_oxygen_in_sea_water,qcFlag 
SCCF RECON,ioos:station:SCCF:18:1,2019-03-01T05:00:00Z,26.6955,-81.8138,1.511,6.2,1111122 
SCCF RECON,ioos:station:SCCF:18:1,2019-03-01T06:00:00Z,26.6955,-81.8138,1.453,5.76,1111122 
SCCF RECON,ioos:station:SCCF:18:1,2019-03-01T07:00:00Z,26.6955,-81.8138,1.39,5.75,1111122 
SCCF RECON,ioos:station:SCCF:18:1,2019-03-01T08:00:00Z,26.6955,-81.8138,1.338,6.09,1111122 
SCCF RECON,ioos:station:SCCF:18:1,2019-03-01T09:00:00Z,26.6955,-81.8138,1.293,6.14,1111122 
SCCF RECON,ioos:station:SCCF:18:1,2019-03-01T10:00:00Z,26.6955,-81.8138,1.258,6.22,1111122 
SCCF RECON,ioos:station:SCCF:18:1,2019-03-01T11:00:00Z,26.6955,-81.8138,1.219,5.9,1111122 
SCCF RECON,ioos:station:SCCF:18:1,2019-03-01T12:00:00Z,26.6955,-81.8138,1.177,5.74,1111122 
SCCF RECON,ioos:station:SCCF:18:1,2019-03-01T13:00:00Z,26.6955,-81.8138,1.147,5.61,1111122 
SCCF RECON,ioos:station:SCCF:18:1,2019-03-01T14:00:00Z,26.6955,-81.8138,1.139,5.5,1111122 
SCCF RECON,ioos:station:SCCF:18:1,2019-03-01T15:00:00Z,26.6955,-81.8138,1.2,5.45,1111122 
SCCF RECON,ioos:station:SCCF:18:1,2019-03-01T16:00:00Z,26.6955,-81.8138,1.27,5.37,1111122 
SCCF RECON,ioos:station:SCCF:18:1,2019-03-01T17:00:00Z,26.6955,-81.8138,1.326,5.52,1111122 
SCCF RECON,ioos:station:SCCF:18:1,2019-03-01T18:00:00Z,26.6955,-81.8138,1.364,5.44,1111122 
SCCF RECON,ioos:station:SCCF:18:1,2019-03-01T20:00:00Z,26.6955,-81.8138,1.465,6.38,1111122 
SCCF RECON,ioos:station:SCCF:18:1,2019-03-01T21:00:00Z,26.6955,-81.8138,1.479,5.38,1111122 
SCCF RECON,ioos:station:SCCF:18:1,2019-03-01T22:00:00Z,26.6955,-81.8138,1.477,5.61,1111122 
SCCF RECON,ioos:station:SCCF:18:1,2019-03-01T23:00:00Z,26.6955,-81.8138,1.454,5.47,1111122 
SCCF RECON,ioos:station:SCCF:18:1,2019-03-02T05:00:00Z,26.6955,-81.8138,1.609,5.37,1111122 
SCCF RECON,ioos:station:SCCF:18:1,2019-03-02T06:00:00Z,26.6955,-81.8138,1.605,6.05,1111122 
SCCF RECON,ioos:station:SCCF:18:1,2019-03-02T07:00:00Z,26.6955,-81.8138,1.553,5.76,1111122 
SCCF RECON,ioos:station:SCCF:18:1,2019-03-02T08:00:00Z,26.6955,-81.8138,1.485,6.34,1111122 
SCCF RECON,ioos:station:SCCF:18:1,2019-03-02T09:00:00Z,26.6955,-81.8138,1.42,6.35,1111122 
SCCF RECON,ioos:station:SCCF:18:1,2019-03-02T10:00:00Z,26.6955,-81.8138,1.37,5.71,1111122 
SCCF RECON,ioos:station:SCCF:18:1,2019-03-02T11:00:00Z,26.6955,-81.8138,1.321,5.83,1111122 
SCCF RECON,ioos:station:SCCF:18:1,2019-03-02T12:00:00Z,26.6955,-81.8138,1.266,5.21,1111122 
SCCF RECON,ioos:station:SCCF:18:1,2019-03-02T13:00:00Z,26.6955,-81.8138,1.23,5.35,1111122 
SCCF RECON,ioos:station:SCCF:18:1,2019-03-02T14:00:00Z,26.6955,-81.8138,1.199,5.2,1111122 
SCCF RECON,ioos:station:SCCF:18:1,2019-03-02T15:00:00Z,26.6955,-81.8138,1.19,5.19,1111122 
SCCF RECON,ioos:station:SCCF:18:1,2019-03-02T16:00:00Z,26.6955,-81.8138,1.251,5.4,1111122 
SCCF RECON,ioos:station:SCCF:18:1,2019-03-02T17:00:00Z,26.6955,-81.8138,1.312,5.12,1111122 
SCCF RECON,ioos:station:SCCF:18:1,2019-03-02T18:00:00Z,26.6955,-81.8138,1.364,5.37,1111122 
SCCF RECON,ioos:station:SCCF:18:1,2019-03-02T19:00:00Z,26.6955,-81.8138,1.408,5.36,1111122 
SCCF RECON,ioos:station:SCCF:18:1,2019-03-02T20:00:00Z,26.6955,-81.8138,1.452,5.42,1111122 
SCCF RECON,ioos:station:SCCF:18:1,2019-03-02T21:00:00Z,26.6955,-81.8138,1.473,4.94,1111122 
SCCF RECON,ioos:station:SCCF:18:1,2019-03-02T22:00:00Z,26.6955,-81.8138,1.45,5.62,1111122 
SCCF RECON,ioos:station:SCCF:18:1,2019-03-02T23:00:00Z,26.6955,-81.8138,1.405,6.13,1111122 
SCCF RECON,ioos:station:SCCF:18:1,2019-03-03T05:00:00Z,26.6955,-81.8138,1.513,4.88,1111122 
SCCF RECON,ioos:station:SCCF:18:1,2019-03-03T06:00:00Z,26.6955,-81.8138,1.531,5.06,1111122 
SCCF RECON,ioos:station:SCCF:18:1,2019-03-03T07:00:00Z,26.6955,-81.8138,1.539,5.43,1111122 
SCCF RECON,ioos:station:SCCF:18:1,2019-03-03T08:00:00Z,26.6955,-81.8138,1.5,5.54,1111122 
SCCF RECON,ioos:station:SCCF:18:1,2019-03-03T09:00:00Z,26.6955,-81.8138,1.421,5.63,1111122 
SCCF RECON,ioos:station:SCCF:18:1,2019-03-03T10:00:00Z,26.6955,-81.8138,1.35,5.14,1111122 
SCCF RECON,ioos:station:SCCF:18:1,2019-03-03T11:00:00Z,26.6955,-81.8138,1.308,6.26,1111122 
SCCF RECON,ioos:station:SCCF:18:1,2019-03-03T12:00:00Z,26.6955,-81.8138,1.261,5.74,1111122 
SCCF RECON,ioos:station:SCCF:18:1,2019-03-03T13:00:00Z,26.6955,-81.8138,1.215,5.23,1111122 
SCCF RECON,ioos:station:SCCF:18:1,2019-03-03T14:00:00Z,26.6955,-81.8138,1.171,5.02,1111122 
SCCF RECON,ioos:station:SCCF:18:1,2019-03-03T15:00:00Z,26.6955,-81.8138,1.147,5.28,1111122 
SCCF RECON,ioos:station:SCCF:18:1,2019-03-03T16:00:00Z,26.6955,-81.8138,1.168,5.27,1111122 
SCCF RECON,ioos:station:SCCF:18:1,2019-03-03T17:00:00Z,26.6955,-81.8138,1.251,5.49,1111122 
SCCF RECON,ioos:station:SCCF:18:1,2019-03-03T18:00:00Z,26.6955,-81.8138,1.341,5.79,1111122 
SCCF RECON,ioos:station:SCCF:18:1,2019-03-03T19:00:00Z,26.6955,-81.8138,1.387,5.44,1111122 
SCCF RECON,ioos:station:SCCF:18:1,2019-03-03T20:00:00Z,26.6955,-81.8138,1.42,5.82,1111122 
SCCF RECON,ioos:station:SCCF:18:1,2019-03-03T21:00:00Z,26.6955,-81.8138,1.451,5.52,1111122 
SCCF RECON,ioos:station:SCCF:18:1,2019-03-03T22:00:00Z,26.6955,-81.8138,1.458,5.45,1111122 
SCCF RECON,ioos:station:SCCF:18:1,2019-03-03T23:00:00Z,26.6955,-81.8138,1.431,5.75,1111122 
SCCF RECON,ioos:station:SCCF:18:1,2019-03-04T05:00:00Z,26.6955,-81.8138,1.57,5.37,1111122 
SCCF RECON,ioos:station:SCCF:18:1,2019-03-04T06:00:00Z,26.6955,-81.8138,1.602,5.4,1111122 
SCCF RECON,ioos:station:SCCF:18:1,2019-03-04T07:00:00Z,26.6955,-81.8138,1.646,5.31,1111122 
SCCF RECON,ioos:station:SCCF:18:1,2019-03-04T08:00:00Z,26.6955,-81.8138,1.651,5.45,1111122 
SCCF RECON,ioos:station:SCCF:18:1,2019-03-04T09:00:00Z,26.6955,-81.8138,1.597,5.46,1111122 
SCCF RECON,ioos:station:SCCF:18:1,2019-03-04T10:00:00Z,26.6955,-81.8138,1.52,5.2,1111122 
SCCF RECON,ioos:station:SCCF:18:1,2019-03-04T11:00:00Z,26.6955,-81.8138,1.461,5.33,1111122 
SCCF RECON,ioos:station:SCCF:18:1,2019-03-04T12:00:00Z,26.6955,-81.8138,1.421,5.31,1111122 
SCCF RECON,ioos:station:SCCF:18:1,2019-03-04T13:00:00Z,26.6955,-81.8138,1.379,5.19,1111122 
SCCF RECON,ioos:station:SCCF:18:1,2019-03-04T14:00:00Z,26.6955,-81.8138,1.339,5.4,1111122 
SCCF RECON,ioos:station:SCCF:18:1,2019-03-04T15:00:00Z,26.6955,-81.8138,1.301,5.35,1111122 
SCCF RECON,ioos:station:SCCF:18:1,2019-03-04T16:00:00Z,26.6955,-81.8138,1.302,5.34,1111122 
SCCF RECON,ioos:station:SCCF:18:1,2019-03-04T17:00:00Z,26.6955,-81.8138,1.361,5.55,1111122 
SCCF RECON,ioos:station:SCCF:18:1,2019-03-04T18:00:00Z,26.6955,-81.8138,1.43,5.76,1111122 
SCCF RECON,ioos:station:SCCF:18:1,2019-03-04T19:00:00Z,26.6955,-81.8138,1.471,5.29,1111122 
SCCF RECON,ioos:station:SCCF:18:1,2019-03-04T20:00:00Z,26.6955,-81.8138,1.518,5.54,1111122 
SCCF RECON,ioos:station:SCCF:18:1,2019-03-04T21:00:00Z,26.6955,-81.8138,1.547,5.75,1111122 
SCCF RECON,ioos:station:SCCF:18:1,2019-03-04T22:00:00Z,26.6955,-81.8138,1.515,5.81,1111122 
SCCF RECON,ioos:station:SCCF:18:1,2019-03-04T23:00:00Z,26.6955,-81.8138,1.444,5.6,1111122 
SCCF RECON,ioos:station:SCCF:18:1,2019-03-05T05:00:00Z,26.6955,-81.8138,1.426,5.51,1111122 
SCCF RECON,ioos:station:SCCF:18:1,2019-03-05T06:00:00Z,26.6955,-81.8138,1.488,5.38,1111122 
SCCF RECON,ioos:station:SCCF:18:1,2019-03-05T07:00:00Z,26.6955,-81.8138,1.507,5.34,1111122 
SCCF RECON,ioos:station:SCCF:18:1,2019-03-05T08:00:00Z,26.6955,-81.8138,1.526,5.41,1111122 
SCCF RECON,ioos:station:SCCF:18:1,2019-03-05T09:00:00Z,26.6955,-81.8138,1.51,5.37,1111122 
SCCF RECON,ioos:station:SCCF:18:1,2019-03-05T10:00:00Z,26.6955,-81.8138,1.44,5.36,1111122 
SCCF RECON,ioos:station:SCCF:18:1,2019-03-05T11:00:00Z,26.6955,-81.8138,1.371,5.35,1111122 
SCCF RECON,ioos:station:SCCF:18:1,2019-03-05T12:00:00Z,26.6955,-81.8138,1.33,5.56,1111122 
SCCF RECON,ioos:station:SCCF:18:1,2019-03-05T13:00:00Z,26.6955,-81.8138,1.283,5.31,1111122 
SCCF RECON,ioos:station:SCCF:18:1,2019-03-05T14:00:00Z,26.6955,-81.8138,1.24,5.18,1111122 
SCCF RECON,ioos:station:SCCF:18:1,2019-03-05T15:00:00Z,26.6955,-81.8138,1.204,5.1,1111122 
SCCF RECON,ioos:station:SCCF:18:1,2019-03-05T16:00:00Z,26.6955,-81.8138,1.18,5.32,1111122 
SCCF RECON,ioos:station:SCCF:18:1,2019-03-05T17:00:00Z,26.6955,-81.8138,1.195,5.23,1111122 
SCCF RECON,ioos:station:SCCF:18:1,2019-03-05T18:00:00Z,26.6955,-81.8138,1.253,5.45,1111122 
SCCF RECON,ioos:station:SCCF:18:1,2019-03-05T19:00:00Z,26.6955,-81.8138,1.301,5.54,1111122 
SCCF RECON,ioos:station:SCCF:18:1,2019-03-05T20:00:00Z,26.6955,-81.8138,1.351,5.43,1111122 
SCCF RECON,ioos:station:SCCF:18:1,2019-03-05T21:00:00Z,26.6955,-81.8138,1.4,5.77,1111122 
SCCF RECON,ioos:station:SCCF:18:1,2019-03-05T23:00:00Z,26.6955,-81.8138,1.299,5.46,1111122 
SCCF RECON,ioos:station:SCCF:18:1,2019-03-06T05:00:00Z,26.6955,-81.8138,1.161,5.33,1111122 
SCCF RECON,ioos:station:SCCF:18:1,2019-03-06T06:00:00Z,26.6955,-81.8138,1.22,5.39,1111122 
SCCF RECON,ioos:station:SCCF:18:1,2019-03-06T07:00:00Z,26.6955,-81.8138,1.296,5.33,1111122 
SCCF RECON,ioos:station:SCCF:18:1,2019-03-06T08:00:00Z,26.6955,-81.8138,1.339,5.36,1111122 
SCCF RECON,ioos:station:SCCF:18:1,2019-03-06T09:00:00Z,26.6955,-81.8138,1.335,5.18,1111122 
SCCF RECON,ioos:station:SCCF:18:1,2019-03-06T10:00:00Z,26.6955,-81.8138,1.292,5.24,1111122 
SCCF RECON,ioos:station:SCCF:18:1,2019-03-06T11:00:00Z,26.6955,-81.8138,1.231,5.27,1111122 
SCCF RECON,ioos:station:SCCF:18:1,2019-03-06T12:00:00Z,26.6955,-81.8138,1.188,5.05,1111122 
SCCF RECON,ioos:station:SCCF:18:1,2019-03-06T13:00:00Z,26.6955,-81.8138,1.154,5.09,1111122 
SCCF RECON,ioos:station:SCCF:18:1,2019-03-06T14:00:00Z,26.6955,-81.8138,1.105,5.14,1111122 
SCCF RECON,ioos:station:SCCF:18:1,2019-03-06T15:00:00Z,26.6955,-81.8138,1.059,5.2,1111122 
SCCF RECON,ioos:station:SCCF:18:1,2019-03-06T16:00:00Z,26.6955,-81.8138,1.019,5.26,1111122 
SCCF RECON,ioos:station:SCCF:18:1,2019-03-06T17:00:00Z,26.6955,-81.8138,0.982,5.32,1111122 
SCCF RECON,ioos:station:SCCF:18:1,2019-03-06T18:00:00Z,26.6955,-81.8138,0.976,5.54,1111122 
SCCF RECON,ioos:station:SCCF:18:1,2019-03-06T19:00:00Z,26.6955,-81.8138,1.038,5.76,1111122 
SCCF RECON,ioos:station:SCCF:18:1,2019-03-06T20:00:00Z,26.6955,-81.8138,1.099,6.39,1111122 
SCCF RECON,ioos:station:SCCF:18:1,2019-03-06T21:00:00Z,26.6955,-81.8138,1.15,6.31,1111122 
SCCF RECON,ioos:station:SCCF:18:1,2019-03-06T22:00:00Z,26.6955,-81.8138,1.173,6.32,1111122 
SCCF RECON,ioos:station:SCCF:18:1,2019-03-06T23:00:00Z,26.6955,-81.8138,1.179,6.48,1111122 
SCCF RECON,ioos:station:SCCF:18:1,2019-03-07T05:00:00Z,26.6955,-81.8138,1.1,6.34,1111122 
SCCF RECON,ioos:station:SCCF:18:1,2019-03-07T06:00:00Z,26.6955,-81.8138,1.178,6.13,1111122 
SCCF RECON,ioos:station:SCCF:18:1,2019-03-07T07:00:00Z,26.6955,-81.8138,1.251,6.5,1111122 
SCCF RECON,ioos:station:SCCF:18:1,2019-03-07T08:00:00Z,26.6955,-81.8138,1.297,6.42,1111122 
SCCF RECON,ioos:station:SCCF:18:1,2019-03-07T09:00:00Z,26.6955,-81.8138,1.338,6.45,1111122 
SCCF RECON,ioos:station:SCCF:18:1,2019-03-07T10:00:00Z,26.6955,-81.8138,1.351,6.37,1111122 
SCCF RECON,ioos:station:SCCF:18:1,2019-03-07T11:00:00Z,26.6955,-81.8138,1.31,5.57,1111122 
SCCF RECON,ioos:station:SCCF:18:1,2019-03-07T12:00:00Z,26.6955,-81.8138,1.253,5.72,1111122 
SCCF RECON,ioos:station:SCCF:18:1,2019-03-07T13:00:00Z,26.6955,-81.8138,1.205,5.7,1111122 
SCCF RECON,ioos:station:SCCF:18:1,2019-03-07T14:00:00Z,26.6955,-81.8138,1.158,5.74,1111122 
SCCF RECON,ioos:station:SCCF:18:1,2019-03-07T15:00:00Z,26.6955,-81.8138,1.119,5.67,1111122 
SCCF RECON,ioos:station:SCCF:18:1,2019-03-07T16:00:00Z,26.6955,-81.8138,1.085,5.61,1111122 
SCCF RECON,ioos:station:SCCF:18:1,2019-03-07T17:00:00Z,26.6955,-81.8138,1.06,5.92,1111122 
SCCF RECON,ioos:station:SCCF:18:1,2019-03-07T18:00:00Z,26.6955,-81.8138,1.114,6.03,1111122 
SCCF RECON,ioos:station:SCCF:18:1,2019-03-07T19:00:00Z,26.6955,-81.8138,1.189,6.81,1111122 
SCCF RECON,ioos:station:SCCF:18:1,2019-03-07T20:00:00Z,26.6955,-81.8138,1.257,7.28,1111122 
SCCF RECON,ioos:station:SCCF:18:1,2019-03-07T21:00:00Z,26.6955,-81.8138,1.301,7.32,1111122 
SCCF RECON,ioos:station:SCCF:18:1,2019-03-07T22:00:00Z,26.6955,-81.8138,1.341,7.27,1111122 
SCCF RECON,ioos:station:SCCF:18:1,2019-03-07T23:00:00Z,26.6955,-81.8138,1.357,8.11,1111122 
SCCF RECON,ioos:station:SCCF:18:1,2019-03-08T05:00:00Z,26.6955,-81.8138,1.183,6.22,1111122 
SCCF RECON,ioos:station:SCCF:18:1,2019-03-08T06:00:00Z,26.6955,-81.8138,1.26,6.36,1111122 
SCCF RECON,ioos:station:SCCF:18:1,2019-03-08T07:00:00Z,26.6955,-81.8138,1.335,6.26,1111122 
SCCF RECON,ioos:station:SCCF:18:1,2019-03-08T08:00:00Z,26.6955,-81.8138,1.382,6.18,1111122 
SCCF RECON,ioos:station:SCCF:18:1,2019-03-08T09:00:00Z,26.6955,-81.8138,1.421,6.81,1111122 
SCCF RECON,ioos:station:SCCF:18:1,2019-03-08T10:00:00Z,26.6955,-81.8138,1.455,6.65,1111122 
SCCF RECON,ioos:station:SCCF:18:1,2019-03-08T11:00:00Z,26.6955,-81.8138,1.428,6.46,1111122 
SCCF RECON,ioos:station:SCCF:18:1,2019-03-08T12:00:00Z,26.6955,-81.8138,1.357,5.8,1111122 
SCCF RECON,ioos:station:SCCF:18:1,2019-03-08T13:00:00Z,26.6955,-81.8138,1.296,5.75,1111122 
SCCF RECON,ioos:station:SCCF:18:1,2019-03-08T14:00:00Z,26.6955,-81.8138,1.252,5.85,1111122 
SCCF RECON,ioos:station:SCCF:18:1,2019-03-08T16:00:00Z,26.6955,-81.8138,1.179,6.16,1111122 
SCCF RECON,ioos:station:SCCF:18:1,2019-03-08T17:00:00Z,26.6955,-81.8138,1.163,6.22,1111122 
SCCF RECON,ioos:station:SCCF:18:1,2019-03-08T18:00:00Z,26.6955,-81.8138,1.222,6.24,1111122 
SCCF RECON,ioos:station:SCCF:18:1,2019-03-08T19:00:00Z,26.6955,-81.8138,1.306,6.64,1111122 
SCCF RECON,ioos:station:SCCF:18:1,2019-03-08T20:00:00Z,26.6955,-81.8138,1.371,7.08,1111122 
SCCF RECON,ioos:station:SCCF:18:1,2019-03-08T21:00:00Z,26.6955,-81.8138,1.411,7.11,1111122 
SCCF RECON,ioos:station:SCCF:18:1,2019-03-08T22:00:00Z,26.6955,-81.8138,1.461,7.36,1111122 
SCCF RECON,ioos:station:SCCF:18:1,2019-03-08T23:00:00Z,26.6955,-81.8138,1.485,7.49,1111122 
SCCF RECON,ioos:station:SCCF:18:1,2019-03-09T05:00:00Z,26.6955,-81.8138,1.18,6.34,1111122 
SCCF RECON,ioos:station:SCCF:18:1,2019-03-09T06:00:00Z,26.6955,-81.8138,1.215,6.17,1111122 
SCCF RECON,ioos:station:SCCF:18:1,2019-03-09T07:00:00Z,26.6955,-81.8138,1.301,6.34,1111122 
SCCF RECON,ioos:station:SCCF:18:1,2019-03-09T08:00:00Z,26.6955,-81.8138,1.372,6.18,1111122 
SCCF RECON,ioos:station:SCCF:18:1,2019-03-09T09:00:00Z,26.6955,-81.8138,1.421,6.35,1111122 
SCCF RECON,ioos:station:SCCF:18:1,2019-03-09T10:00:00Z,26.6955,-81.8138,1.467,6.57,1111122 
SCCF RECON,ioos:station:SCCF:18:1,2019-03-09T11:00:00Z,26.6955,-81.8138,1.482,6.37,1111122 
SCCF RECON,ioos:station:SCCF:18:1,2019-03-09T12:00:00Z,26.6955,-81.8138,1.422,6.17,1111122 
SCCF RECON,ioos:station:SCCF:18:1,2019-03-09T13:00:00Z,26.6955,-81.8138,1.347,5.82,1111122 
SCCF RECON,ioos:station:SCCF:18:1,2019-03-09T14:00:00Z,26.6955,-81.8138,1.3,5.65,1111122 
SCCF RECON,ioos:station:SCCF:18:1,2019-03-09T15:00:00Z,26.6955,-81.8138,1.269,5.68,1111122 
SCCF RECON,ioos:station:SCCF:18:1,2019-03-09T16:00:00Z,26.6955,-81.8138,1.228,5.94,1111122 
SCCF RECON,ioos:station:SCCF:18:1,2019-03-09T17:00:00Z,26.6955,-81.8138,1.183,6.13,1111122 
SCCF RECON,ioos:station:SCCF:18:1,2019-03-09T18:00:00Z,26.6955,-81.8138,1.218,6.18,1111122 
SCCF RECON,ioos:station:SCCF:18:1,2019-03-09T19:00:00Z,26.6955,-81.8138,1.303,6.44,1111122 
SCCF RECON,ioos:station:SCCF:18:1,2019-03-09T20:00:00Z,26.6955,-81.8138,1.402,6.66,1111122 
SCCF RECON,ioos:station:SCCF:18:1,2019-03-09T21:00:00Z,26.6955,-81.8138,1.467,6.89,1111122 
SCCF RECON,ioos:station:SCCF:18:1,2019-03-09T22:00:00Z,26.6955,-81.8138,1.533,7.11,1111122 
SCCF RECON,ioos:station:SCCF:18:1,2019-03-09T23:00:00Z,26.6955,-81.8138,1.57,7.16,1111122 
SCCF RECON,ioos:station:SCCF:18:1,2019-03-10T05:00:00Z,26.6955,-81.8138,1.267,6.44,1111122 
SCCF RECON,ioos:station:SCCF:18:1,2019-03-10T06:00:00Z,26.6955,-81.8138,1.239,6.31,1111122 
SCCF RECON,ioos:station:SCCF:18:1,2019-03-10T07:00:00Z,26.6955,-81.8138,1.295,5.73,1111122 
SCCF RECON,ioos:station:SCCF:18:1,2019-03-10T08:00:00Z,26.6955,-81.8138,1.379,5.72,1111122 
SCCF RECON,ioos:station:SCCF:18:1,2019-03-10T09:00:00Z,26.6955,-81.8138,1.451,5.37,1111122 
SCCF RECON,ioos:station:SCCF:18:1,2019-03-10T10:00:00Z,26.6955,-81.8138,1.502,5.71,1111122 
SCCF RECON,ioos:station:SCCF:18:1,2019-03-10T11:00:00Z,26.6955,-81.8138,1.543,5.58,1111122 
SCCF RECON,ioos:station:SCCF:18:1,2019-03-10T12:00:00Z,26.6955,-81.8138,1.549,5.5,1111122 
SCCF RECON,ioos:station:SCCF:18:1,2019-03-10T13:00:00Z,26.6955,-81.8138,1.495,5.43,1111122 
SCCF RECON,ioos:station:SCCF:18:1,2019-03-10T14:00:00Z,26.6955,-81.8138,1.435,5.33,1111122 
SCCF RECON,ioos:station:SCCF:18:1,2019-03-10T15:00:00Z,26.6955,-81.8138,1.388,5.59,1111122 
SCCF RECON,ioos:station:SCCF:18:1,2019-03-10T16:00:00Z,26.6955,-81.8138,1.356,5.68,1111122 
SCCF RECON,ioos:station:SCCF:18:1,2019-03-10T17:00:00Z,26.6955,-81.8138,1.325,5.91,1111122 
SCCF RECON,ioos:station:SCCF:18:1,2019-03-10T18:00:00Z,26.6955,-81.8138,1.341,5.37,1111122 
SCCF RECON,ioos:station:SCCF:18:1,2019-03-10T19:00:00Z,26.6955,-81.8138,1.439,6.04,1111122 
SCCF RECON,ioos:station:SCCF:18:1,2019-03-10T20:00:00Z,26.6955,-81.8138,1.531,6.25,1111122 
SCCF RECON,ioos:station:SCCF:18:1,2019-03-10T21:00:00Z,26.6955,-81.8138,1.573,5.81,1111122 
SCCF RECON,ioos:station:SCCF:18:1,2019-03-10T22:00:00Z,26.6955,-81.8138,1.61,5.93,1111122 
SCCF RECON,ioos:station:SCCF:18:1,2019-03-11T04:00:00Z,26.6955,-81.8138,1.371,6.16,1111122 
SCCF RECON,ioos:station:SCCF:18:1,2019-03-11T05:00:00Z,26.6955,-81.8138,1.313,6.0,1111122 
SCCF RECON,ioos:station:SCCF:18:1,2019-03-11T06:00:00Z,26.6955,-81.8138,1.266,6.06,1111122 
SCCF RECON,ioos:station:SCCF:18:1,2019-03-11T07:00:00Z,26.6955,-81.8138,1.24,5.52,1111122 
SCCF RECON,ioos:station:SCCF:18:1,2019-03-11T08:00:00Z,26.6955,-81.8138,1.283,5.57,1111122 
SCCF RECON,ioos:station:SCCF:18:1,2019-03-11T09:00:00Z,26.6955,-81.8138,1.355,5.25,1111122 
SCCF RECON,ioos:station:SCCF:18:1,2019-03-11T10:00:00Z,26.6955,-81.8138,1.42,4.96,1111122 
SCCF RECON,ioos:station:SCCF:18:1,2019-03-11T11:00:00Z,26.6955,-81.8138,1.451,5.0,1111122 
SCCF RECON,ioos:station:SCCF:18:1,2019-03-11T12:00:00Z,26.6955,-81.8138,1.479,5.36,1111122 
SCCF RECON,ioos:station:SCCF:18:1,2019-03-11T13:00:00Z,26.6955,-81.8138,1.468,5.24,1111122 
SCCF RECON,ioos:station:SCCF:18:1,2019-03-11T14:00:00Z,26.6955,-81.8138,1.409,5.22,1111122 
SCCF RECON,ioos:station:SCCF:18:1,2019-03-11T15:00:00Z,26.6955,-81.8138,1.343,5.06,1111122 
SCCF RECON,ioos:station:SCCF:18:1,2019-03-11T16:00:00Z,26.6955,-81.8138,1.31,5.47,1111122 
SCCF RECON,ioos:station:SCCF:18:1,2019-03-11T17:00:00Z,26.6955,-81.8138,1.284,5.13,1111122 
SCCF RECON,ioos:station:SCCF:18:1,2019-03-11T18:00:00Z,26.6955,-81.8138,1.267,5.13,1111122 
SCCF RECON,ioos:station:SCCF:18:1,2019-03-11T19:00:00Z,26.6955,-81.8138,1.32,5.65,1111122 
SCCF RECON,ioos:station:SCCF:18:1,2019-03-11T20:00:00Z,26.6955,-81.8138,1.398,5.49,1111122 
SCCF RECON,ioos:station:SCCF:18:1,2019-03-11T21:00:00Z,26.6955,-81.8138,1.477,6.04,1111122 
SCCF RECON,ioos:station:SCCF:18:1,2019-03-11T22:00:00Z,26.6955,-81.8138,1.54,5.69,1111122 
SCCF RECON,ioos:station:SCCF:18:1,2019-03-11T23:00:00Z,26.6955,-81.8138,1.58,4.98,1111122 
SCCF RECON,ioos:station:SCCF:18:1,2019-03-12T04:00:00Z,26.6955,-81.8138,1.351,6.12,1111122 
SCCF RECON,ioos:station:SCCF:18:1,2019-03-12T05:00:00Z,26.6955,-81.8138,1.3,5.9,1111122 
SCCF RECON,ioos:station:SCCF:18:1,2019-03-12T06:00:00Z,26.6955,-81.8138,1.249,5.8,1111122 
SCCF RECON,ioos:station:SCCF:18:1,2019-03-12T07:00:00Z,26.6955,-81.8138,1.2,5.98,1111122 
SCCF RECON,ioos:station:SCCF:18:1,2019-03-12T08:00:00Z,26.6955,-81.8138,1.165,5.05,1111122 
SCCF RECON,ioos:station:SCCF:18:1,2019-03-12T09:00:00Z,26.6955,-81.8138,1.188,5.07,1111122 
SCCF RECON,ioos:station:SCCF:18:1,2019-03-12T10:00:00Z,26.6955,-81.8138,1.26,5.2,1111122 
SCCF RECON,ioos:station:SCCF:18:1,2019-03-12T11:00:00Z,26.6955,-81.8138,1.33,5.07,1111122 
SCCF RECON,ioos:station:SCCF:18:1,2019-03-12T12:00:00Z,26.6955,-81.8138,1.37,4.96,1111122 
SCCF RECON,ioos:station:SCCF:18:1,2019-03-12T13:00:00Z,26.6955,-81.8138,1.377,5.12,1111122 
SCCF RECON,ioos:station:SCCF:18:1,2019-03-12T14:00:00Z,26.6955,-81.8138,1.349,5.08,1111122 
SCCF RECON,ioos:station:SCCF:18:1,2019-03-12T15:00:00Z,26.6955,-81.8138,1.296,5.15,1111122 
SCCF RECON,ioos:station:SCCF:18:1,2019-03-12T16:00:00Z,26.6955,-81.8138,1.246,5.57,1111122 
SCCF RECON,ioos:station:SCCF:18:1,2019-03-12T17:00:00Z,26.6955,-81.8138,1.207,4.81,1111122 
SCCF RECON,ioos:station:SCCF:18:1,2019-03-12T18:00:00Z,26.6955,-81.8138,1.188,4.95,1111122 
SCCF RECON,ioos:station:SCCF:18:1,2019-03-12T19:00:00Z,26.6955,-81.8138,1.191,5.45,1111122 
SCCF RECON,ioos:station:SCCF:18:1,2019-03-12T20:00:00Z,26.6955,-81.8138,1.26,6.09,1111122 
SCCF RECON,ioos:station:SCCF:18:1,2019-03-12T21:00:00Z,26.6955,-81.8138,1.35,5.75,1111122 
SCCF RECON,ioos:station:SCCF:18:1,2019-03-12T23:00:00Z,26.6955,-81.8138,1.432,6.29,1111122 
SCCF RECON,ioos:station:SCCF:18:1,2019-03-13T04:00:00Z,26.6955,-81.8138,1.289,5.79,1111122 
SCCF RECON,ioos:station:SCCF:18:1,2019-03-13T05:00:00Z,26.6955,-81.8138,1.241,5.87,1111122 
SCCF RECON,ioos:station:SCCF:18:1,2019-03-13T06:00:00Z,26.6955,-81.8138,1.191,5.35,1111122 
SCCF RECON,ioos:station:SCCF:18:1,2019-03-13T07:00:00Z,26.6955,-81.8138,1.142,5.25,1111122 
SCCF RECON,ioos:station:SCCF:18:1,2019-03-13T08:00:00Z,26.6955,-81.8138,1.1,5.4,1111122 
SCCF RECON,ioos:station:SCCF:18:1,2019-03-13T09:00:00Z,26.6955,-81.8138,1.07,5.47,1111122 
SCCF RECON,ioos:station:SCCF:18:1,2019-03-13T10:00:00Z,26.6955,-81.8138,1.091,5.43,1111122 
SCCF RECON,ioos:station:SCCF:18:1,2019-03-13T11:00:00Z,26.6955,-81.8138,1.154,5.29,1111122 
SCCF RECON,ioos:station:SCCF:18:1,2019-03-13T12:00:00Z,26.6955,-81.8138,1.221,4.98,1111122 
SCCF RECON,ioos:station:SCCF:18:1,2019-03-13T13:00:00Z,26.6955,-81.8138,1.26,5.24,1111122 
SCCF RECON,ioos:station:SCCF:18:1,2019-03-13T14:00:00Z,26.6955,-81.8138,1.28,5.32,1111122 
SCCF RECON,ioos:station:SCCF:18:1,2019-03-13T15:00:00Z,26.6955,-81.8138,1.285,5.53,1111122 
SCCF RECON,ioos:station:SCCF:18:1,2019-03-13T16:00:00Z,26.6955,-81.8138,1.272,5.64,1111122 
SCCF RECON,ioos:station:SCCF:18:1,2019-03-13T17:00:00Z,26.6955,-81.8138,1.248,5.78,1111122 
SCCF RECON,ioos:station:SCCF:18:1,2019-03-13T18:00:00Z,26.6955,-81.8138,1.24,5.86,1111122 
SCCF RECON,ioos:station:SCCF:18:1,2019-03-13T19:00:00Z,26.6955,-81.8138,1.241,6.17,1111122 
SCCF RECON,ioos:station:SCCF:18:1,2019-03-13T20:00:00Z,26.6955,-81.8138,1.272,7.16,1111122 
SCCF RECON,ioos:station:SCCF:18:1,2019-03-13T21:00:00Z,26.6955,-81.8138,1.331,6.44,1111122 
SCCF RECON,ioos:station:SCCF:18:1,2019-03-13T22:00:00Z,26.6955,-81.8138,1.399,6.87,1111122 
SCCF RECON,ioos:station:SCCF:18:1,2019-03-13T23:00:00Z,26.6955,-81.8138,1.448,7.34,1111122 
SCCF RECON,ioos:station:SCCF:18:1,2019-03-14T04:00:00Z,26.6955,-81.8138,1.422,6.5,1111122 
SCCF RECON,ioos:station:SCCF:18:1,2019-03-14T05:00:00Z,26.6955,-81.8138,1.358,6.18,1111122 
SCCF RECON,ioos:station:SCCF:18:1,2019-03-14T06:00:00Z,26.6955,-81.8138,1.308,6.15,1111122 
SCCF RECON,ioos:station:SCCF:18:1,2019-03-14T07:00:00Z,26.6955,-81.8138,1.251,6.02,1111122 
SCCF RECON,ioos:station:SCCF:18:1,2019-03-14T08:00:00Z,26.6955,-81.8138,1.197,6.11,1111122 
SCCF RECON,ioos:station:SCCF:18:1,2019-03-14T09:00:00Z,26.6955,-81.8138,1.141,5.77,1111122 
SCCF RECON,ioos:station:SCCF:18:1,2019-03-14T10:00:00Z,26.6955,-81.8138,1.116,5.77,1111122 
SCCF RECON,ioos:station:SCCF:18:1,2019-03-14T11:00:00Z,26.6955,-81.8138,1.111,5.7,1111122 
SCCF RECON,ioos:station:SCCF:18:1,2019-03-14T12:00:00Z,26.6955,-81.8138,1.169,5.81,1111122 
SCCF RECON,ioos:station:SCCF:18:1,2019-03-14T13:00:00Z,26.6955,-81.8138,1.231,5.79,1111122 
SCCF RECON,ioos:station:SCCF:18:1,2019-03-14T14:00:00Z,26.6955,-81.8138,1.297,5.84,1111122 
SCCF RECON,ioos:station:SCCF:18:1,2019-03-14T15:00:00Z,26.6955,-81.8138,1.334,6.11,1111122 
SCCF RECON,ioos:station:SCCF:18:1,2019-03-14T16:00:00Z,26.6955,-81.8138,1.377,6.15,1111122 
SCCF RECON,ioos:station:SCCF:18:1,2019-03-14T17:00:00Z,26.6955,-81.8138,1.384,6.45,1111122 
SCCF RECON,ioos:station:SCCF:18:1,2019-03-14T18:00:00Z,26.6955,-81.8138,1.381,7.0,1111122 